London-Corbin, KY

10:32 PM EDT on July 18, 2019 (GMT -0400)
London-Corbin / McKee

Weather History for KLOZ - May, 2019

Change the Weather History Date:

Monday, May 27, 2019

  Actual Average Record
Temperature  
Mean Temperature 76 °F 68 °F  
Max Temperature 87 °F 79 °F 90 °F (2012)
Min Temperature 64 °F 56 °F 31 °F (1961)
Degree Days  
Heating Degree Days 0 2  
Month to date heating degree days 44 90  
Since 1 July heating degree days 4024 4191  
Cooling Degree Days 11 4  
Month to date cooling degree days 129 69  
Year to date cooling degree days 141 95  
Growing Degree Days 25 (Base 50)    
Moisture  
Dew Point 67 °F    
Average Humidity 76    
Maximum Humidity 100    
Minimum Humidity 51    
Precipitation  
Precipitation 0.00 in 0.17 in 2.05 in (1973)
Sea Level Pressure  
Sea Level Pressure 30.04 in    
Wind  
Wind Speed 4 mph (SW)    
Max Wind Speed 17 mph    
Max Gust Speed 25 mph    
Visibility 6 miles    
Events Fog    
T = Trace of Precipitation, MM = Missing Value Source: NWS Daily Summary

Daily Weather History Graph

Daily Weather History Graph

Search for Another Location

Airport or City:

Astronomy

May. 27, 2019 Rise Set
Actual Time 6:20 AM EDT 8:47 PM EDT
Civil Twilight 5:50 AM EDT 9:17 PM EDT
Nautical Twilight 5:13 AM EDT 9:54 PM EDT
Astronomical Twilight 4:32 AM EDT 10:35 PM EDT
Moon 2:52 AM EDT (5/27) 2:10 PM EDT (5/27)
Length of Visible Light 15h 26m
Length of Day
14h 26m
Last Quarter, 41% of the Moon is Illuminated
May 27
Last Quarter
Jun 3
New
Jun 10
First Quarter
Jun 17
Full
Jun 25
Last Quarter

Hourly Weather History & Observations

Time (EDT) Temp. Heat Index Dew Point Humidity Pressure Visibility Wind Dir Wind Speed Gust Speed Precip Events Conditions
12:40 AM 66.0 °F - 66.0 °F 100% 30.09 in 1.5 mi Calm Calm - N/A   Clear
12:53 AM 66.9 °F - 66.9 °F 100% 30.05 in 3.0 mi Calm Calm - N/A   Clear
12:56 AM 66.9 °F - 66.9 °F 100% 30.09 in 1.8 mi Calm Calm - N/A   Clear
1:05 AM 66.9 °F - 66.9 °F 100% 30.09 in 4.0 mi Calm Calm - N/A   Clear
1:18 AM 66.0 °F - 66.0 °F 100% 30.09 in 1.2 mi Calm Calm - N/A   Partly Cloudy
1:25 AM 66.0 °F - 66.0 °F 100% 30.09 in 1.0 mi Calm Calm - N/A   Mist
1:29 AM 66.0 °F - 66.0 °F 100% 30.09 in 2.5 mi Calm Calm - N/A   Partly Cloudy
1:36 AM 66.0 °F - 66.0 °F 100% 30.09 in 4.0 mi Calm Calm - N/A   Partly Cloudy
1:53 AM 66.9 °F - 66.9 °F 100% 30.04 in 5.0 mi Calm Calm - N/A   Clear
2:07 AM 66.0 °F - 66.0 °F 100% 30.08 in 1.5 mi Calm Calm - N/A   Partly Cloudy
2:09 AM 64.9 °F - 64.9 °F 100% 30.08 in 0.8 mi Calm Calm - N/A   Mist
2:19 AM 66.0 °F - 66.0 °F 100% 30.08 in 1.5 mi Calm Calm - N/A   Partly Cloudy
2:21 AM 64.9 °F - 64.9 °F 100% 30.08 in 3.0 mi Calm Calm - N/A   Partly Cloudy
2:28 AM 64.9 °F - 64.9 °F 100% 30.08 in 1.8 mi Calm Calm - N/A   Partly Cloudy
2:32 AM 64.9 °F - 64.9 °F 100% 30.08 in 0.8 mi Calm Calm - N/A   Mist
2:53 AM 64.9 °F - 64.9 °F 100% 30.04 in 0.2 mi Calm Calm - N/A Fog Fog
3:53 AM 64.9 °F - 64.9 °F 100% 30.03 in 0.2 mi Calm Calm - N/A Fog Fog
4:39 AM 64.9 °F - 64.9 °F 100% 30.07 in 1.5 mi Calm Calm - N/A   Overcast
4:53 AM 64.9 °F - 64.9 °F 100% 30.03 in 5.0 mi Calm Calm - N/A   Overcast
5:53 AM 64.9 °F - 64.9 °F 100% 30.04 in 8.0 mi Calm Calm - N/A   Mostly Cloudy
6:16 AM 64.9 °F - 64.9 °F 100% 30.08 in 6.0 mi Calm Calm - N/A   Overcast
6:23 AM 64.0 °F - 64.0 °F 100% 30.08 in 5.0 mi Calm Calm - N/A   Mostly Cloudy
6:29 AM 64.9 °F - 64.9 °F 100% 30.08 in 4.0 mi North - - N/A   Mostly Cloudy
6:34 AM 64.0 °F - 64.0 °F 100% 30.08 in 1.8 mi Calm Calm - N/A   Overcast
6:44 AM 64.0 °F - 64.0 °F 100% 30.08 in 0.2 mi Calm Calm - N/A Fog Fog
6:53 AM 64.9 °F - 64.9 °F 100% 30.05 in 0.8 mi Calm Calm - N/A   Overcast
6:57 AM 64.9 °F - 64.9 °F 100% 30.09 in 2.0 mi Calm Calm - N/A   Overcast
7:06 AM 64.9 °F - 64.9 °F 100% 30.09 in 4.0 mi Calm Calm - N/A   Overcast
7:45 AM 66.0 °F - 66.0 °F 100% 30.10 in 6.0 mi Calm Calm - N/A   Mostly Cloudy
7:53 AM 66.0 °F - 66.0 °F 100% 30.07 in 6.0 mi Calm Calm - N/A   Mostly Cloudy
8:27 AM 68.0 °F - 68.0 °F 100% 30.11 in 8.0 mi Calm Calm - N/A   Scattered Clouds
8:41 AM 70.0 °F - 68.0 °F 93% 30.11 in 8.0 mi Calm Calm - N/A   Mostly Cloudy
8:53 AM 71.1 °F - 69.1 °F 93% 30.07 in 9.0 mi Calm Calm - N/A   Overcast
9:21 AM 71.1 °F - 69.1 °F 93% 30.10 in 9.0 mi Calm Calm - N/A   Mostly Cloudy
9:53 AM 72.0 °F - 69.1 °F 91% 30.07 in 10.0 mi South 5.8 mph - N/A   Mostly Cloudy
10:53 AM 77.0 °F - 69.1 °F 76% 30.06 in 10.0 mi WSW 5.8 mph - N/A   Partly Cloudy
11:53 AM 80.1 °F 82.7 °F 68.0 °F 67% 30.05 in 10.0 mi North - - N/A   Partly Cloudy
12:53 PM 82.9 °F 86.5 °F 69.1 °F 63% 30.03 in 10.0 mi SSW 5.8 mph - N/A   Clear
1:53 PM 84.0 °F 87.0 °F 68.0 °F 58% 30.01 in 10.0 mi West 8.1 mph 17.3 mph N/A   Clear
2:53 PM 84.9 °F 88.2 °F 68.0 °F 57% 29.99 in 10.0 mi West 11.5 mph 18.4 mph N/A   Partly Cloudy
3:53 PM 86.0 °F 88.2 °F 66.0 °F 51% 29.98 in 10.0 mi West 11.5 mph - N/A   Clear
4:53 PM 84.0 °F 86.3 °F 66.0 °F 55% 29.96 in 10.0 mi West 8.1 mph - N/A   Clear
5:53 PM 82.9 °F 85.8 °F 68.0 °F 60% 29.95 in 10.0 mi West 8.1 mph - N/A   Clear
6:53 PM 82.9 °F 86.5 °F 69.1 °F 63% 29.93 in 10.0 mi WSW 6.9 mph - N/A   Clear
7:53 PM 81.0 °F 84.1 °F 69.1 °F 67% 29.92 in 10.0 mi SSW 4.6 mph - N/A   Clear
8:53 PM 79.0 °F - 70.0 °F 74% 29.91 in 10.0 mi South 3.5 mph - N/A   Clear
9:53 PM 75.0 °F - 70.0 °F 84% 29.91 in 10.0 mi Calm Calm - N/A   Clear
10:53 PM 73.9 °F - 70.0 °F 87% 29.90 in 10.0 mi Calm Calm - N/A   Clear
11:53 PM 73.9 °F - 69.1 °F 85% 29.91 in 10.0 mi South 4.6 mph - N/A   Clear